| time (UTC) | temp C | wind direction | speed KPH | gust KPH | rain 1hr cm | rain 24hr cm | rain mn cm | humidity % | barometer mb |
| 20260502231518 | 11 | 0.0 | 0.0 | 0.00 | 0.00 | 0.00 | 70 | 1021.8 | |
| 20260502230523 | 11 | 0.0 | 0.0 | 0.00 | 0.00 | 0.00 | 69 | 1021.8 | |
| 20260502225520 | 11 | 0.0 | 0.0 | 0.00 | 0.00 | 0.00 | 68 | 1021.9 | |
| 20260502224526 | 11 | 0.0 | 0.0 | 0.00 | 0.00 | 0.00 | 66 | 1021.9 | |
| 20260502223517 | 12 | 0.0 | 0.0 | 0.00 | 0.00 | 0.00 | 65 | 1021.9 | |
| 20260502222524 | 12 | 0.0 | 0.0 | 0.00 | 0.00 | 0.00 | 64 | 1021.9 | |
| 20260502221518 | 12 | 0.0 | 0.0 | 0.00 | 0.00 | 0.00 | 63 | 1022.0 | |
| 20260502220519 | 13 | 0.0 | 0.0 | 0.00 | 0.00 | 0.00 | 61 | 1022.0 | |
| 20260502215517 | 14 | 0.0 | 0.0 | 0.00 | 0.00 | 0.00 | 59 | 1021.9 | |
| 20260502214530 | 15 | 220 | 0.0 | 1.6 | 0.00 | 0.00 | 0.00 | 59 | 1022.0 |
| 20260502213519 | 15 | 229 | 1.6 | 3.2 | 0.00 | 0.00 | 0.00 | 60 | 1021.8 |
| 20260502212522 | 13 | 226 | 1.6 | 3.2 | 0.00 | 0.00 | 0.00 | 64 | 1022.0 |
| 20260502211518 | 12 | 203 | 0.0 | 3.2 | 0.00 | 0.00 | 0.00 | 65 | 1022.0 |
| 20260502210521 | 12 | 0.0 | 0.0 | 0.00 | 0.00 | 0.00 | 64 | 1022.0 | |
| 20260502205520 | 12 | 0.0 | 0.0 | 0.00 | 0.00 | 0.00 | 64 | 1022.0 | |
| 20260502204516 | 13 | 0.0 | 0.0 | 0.00 | 0.00 | 0.00 | 63 | 1022.0 | |
| 20260502203517 | 13 | 0.0 | 0.0 | 0.00 | 0.00 | 0.00 | 62 | 1022.1 | |
| 20260502202528 | 13 | 0.0 | 0.0 | 0.00 | 0.00 | 0.00 | 62 | 1022.1 | |
| 20260502201519 | 13 | 0.0 | 0.0 | 0.00 | 0.00 | 0.00 | 60 | 1022.2 | |
| 20260502201016 | 13 | 0.0 | 0.0 | 0.00 | 0.00 | 0.00 | 60 | 1022.2 | |
| 20260502200025 | 14 | 0.0 | 0.0 | 0.00 | 0.00 | 0.00 | 58 | 1022.1 | |
| 20260502195016 | 15 | 0.0 | 0.0 | 0.00 | 0.00 | 0.00 | 57 | 1022.1 | |
| 20260502194017 | 15 | 0.0 | 0.0 | 0.00 | 0.00 | 0.00 | 56 | 1022.1 | |
| 20260502193025 | 15 | 0.0 | 0.0 | 0.00 | 0.00 | 0.00 | 54 | 1022.0 | |
| 20260502192018 | 16 | 0.0 | 0.0 | 0.00 | 0.00 | 0.00 | 53 | 1022.0 | |
| 20260502191025 | 16 | 0.0 | 0.0 | 0.00 | 0.00 | 0.00 | 52 | 1022.0 | |
| 20260502190523 | 16 | 0.0 | 0.0 | 0.00 | 0.00 | 0.00 | 51 | 1021.9 | |
| 20260502185517 | 17 | 198 | 0.0 | 1.6 | 0.00 | 0.00 | 0.00 | 50 | 1021.9 |
| 20260502184522 | 18 | 240 | 0.0 | 1.6 | 0.00 | 0.00 | 0.00 | 47 | 1021.9 |
| 20260502183529 | 19 | 0.0 | 0.0 | 0.00 | 0.00 | 0.00 | 44 | 1021.8 | |
| 20260502182517 | 20 | 237 | 1.6 | 1.6 | 0.00 | 0.00 | 0.00 | 42 | 1021.7 |
| 20260502181516 | 21 | 225 | 1.6 | 1.6 | 0.00 | 0.00 | 0.00 | 40 | 1021.7 |
| 20260502181021 | 21 | 212 | 1.6 | 3.2 | 0.00 | 0.00 | 0.00 | 40 | 1021.6 |
| 20260502164020 | 24 | 208 | 8.0 | 16.1 | 0.00 | 0.00 | 0.00 | 35 | 1021.8 |
| 20260502163029 | 24 | 216 | 3.2 | 11.3 | 0.00 | 0.00 | 0.00 | 34 | 1022.0 |
| 20260502162022 | 25 | 223 | 4.8 | 11.3 | 0.00 | 0.00 | 0.00 | 34 | 1022.1 |
| 20260502161016 | 25 | 202 | 6.4 | 14.5 | 0.00 | 0.00 | 0.00 | 33 | 1022.0 |
| 20260502152026 | 29 | 224 | 8.0 | 14.5 | 0.00 | 0.00 | 0.00 | 29 | 1022.5 |
| 20260502151019 | 29 | 220 | 4.8 | 12.9 | 0.00 | 0.00 | 0.00 | 29 | 1022.5 |
| 20260502123017 | 27 | 203 | 6.4 | 17.7 | 0.00 | 0.00 | 0.00 | 34 | 1024.5 |
| 20260502122020 | 27 | 224 | 6.4 | 17.7 | 0.00 | 0.00 | 0.00 | 34 | 1024.7 |
| 20260502121022 | 26 | 215 | 8.0 | 17.7 | 0.00 | 0.00 | 0.00 | 34 | 1024.8 |
| 20260502115022 | 26 | 222 | 8.0 | 16.1 | 0.00 | 0.00 | 0.00 | 33 | 1025.0 |
| 20260502114030 | 27 | 218 | 4.8 | 12.9 | 0.00 | 0.00 | 0.00 | 35 | 1025.2 |
| 20260502113017 | 27 | 221 | 4.8 | 14.5 | 0.00 | 0.00 | 0.00 | 34 | 1025.3 |
| 20260502112026 | 27 | 193 | 4.8 | 11.3 | 0.00 | 0.00 | 0.00 | 35 | 1025.4 |
| 20260502111023 | 27 | 211 | 4.8 | 14.5 | 0.00 | 0.00 | 0.00 | 34 | 1025.6 |
| 20260502110019 | 27 | 201 | 3.2 | 6.4 | 0.00 | 0.00 | 0.00 | 35 | 1025.8 |
| 20260502105026 | 27 | 221 | 3.2 | 14.5 | 0.00 | 0.00 | 0.00 | 35 | 1025.9 |
| 20260502104017 | 26 | 193 | 4.8 | 12.9 | 0.00 | 0.00 | 0.00 | 35 | 1026.1 |
| 20260502103022 | 26 | 198 | 3.2 | 9.7 | 0.00 | 0.00 | 0.00 | 36 | 1026.2 |
| 20260502102022 | 25 | 198 | 4.8 | 9.7 | 0.00 | 0.00 | 0.00 | 37 | 1026.2 |
| 20260502101019 | 23 | 199 | 3.2 | 9.7 | 0.00 | 0.00 | 0.00 | 40 | 1026.4 |
| 20260502091022 | 20 | 203 | 3.2 | 4.8 | 0.00 | 0.00 | 0.00 | 48 | 1026.9 |
| 20260502090519 | 20 | 204 | 1.6 | 4.8 | 0.00 | 0.00 | 0.00 | 49 | 1027.0 |
| 20260502071516 | 15 | 20 | 1.6 | 4.8 | 0.00 | 0.00 | 0.00 | 59 | 1027.6 |
| 20260502070516 | 15 | 24 | 1.6 | 4.8 | 0.00 | 0.00 | 0.00 | 60 | 1027.6 |
| 20260502065517 | 14 | 18 | 3.2 | 4.8 | 0.00 | 0.00 | 0.00 | 60 | 1027.6 |
| 20260502064524 | 13 | 16 | 0.0 | 3.2 | 0.00 | 0.00 | 0.00 | 63 | 1027.7 |
| 20260502063521 | 13 | 30 | 0.0 | 3.2 | 0.00 | 0.00 | 0.00 | 64 | 1027.7 |
| 20260502062522 | 12 | 9 | 1.6 | 3.2 | 0.00 | 0.00 | 0.00 | 65 | 1027.7 |
| 20260502061522 | 12 | 15 | 1.6 | 3.2 | 0.00 | 0.00 | 0.00 | 66 | 1027.7 |
| 20260502060517 | 11 | 197 | 0.0 | 3.2 | 0.00 | 0.00 | 0.00 | 67 | 1027.7 |
| 20260502055528 | 11 | 0.0 | 0.0 | 0.00 | 0.00 | 0.00 | 68 | 1027.7 | |
| 20260502054521 | 11 | 223 | 0.0 | 3.2 | 0.00 | 0.00 | 0.00 | 70 | 1027.6 |
| 20260502053517 | 10 | 0.0 | 0.0 | 0.00 | 0.00 | 0.00 | 71 | 1027.8 | |
| 20260502052520 | 9 | 231 | 0.0 | 1.6 | 0.00 | 0.00 | 0.00 | 73 | 1027.7 |
| 20260502051523 | 9 | 0.0 | 0.0 | 0.00 | 0.00 | 0.00 | 74 | 1027.7 | |
| 20260502050519 | 8 | 0.0 | 0.0 | 0.00 | 0.00 | 0.00 | 74 | 1027.7 | |
| 20260502045516 | 8 | 0.0 | 0.0 | 0.00 | 0.00 | 0.00 | 75 | 1027.7 | |
| 20260502044523 | 8 | 0.0 | 0.0 | 0.00 | 0.00 | 0.00 | 76 | 1027.7 | |
| 20260502043516 | 7 | 0.0 | 0.0 | 0.00 | 0.00 | 0.00 | 77 | 1027.6 | |
| 20260502042534 | 7 | 0.0 | 0.0 | 0.00 | 0.00 | 0.00 | 78 | 1027.7 | |
| 20260502041517 | 7 | 0.0 | 0.0 | 0.00 | 0.00 | 0.00 | 79 | 1027.7 | |
| 20260502040522 | 7 | 0.0 | 0.0 | 0.00 | 0.00 | 0.00 | 79 | 1027.5 | |
| 20260502035521 | 6 | 0.0 | 0.0 | 0.00 | 0.00 | 0.00 | 80 | 1027.5 | |
| 20260502034517 | 6 | 0.0 | 0.0 | 0.00 | 0.00 | 0.00 | 79 | 1027.6 | |
| 20260502033524 | 6 | 0.0 | 0.0 | 0.00 | 0.00 | 0.00 | 78 | 1027.5 | |
| 20260502032531 | 6 | 0.0 | 0.0 | 0.00 | 0.00 | 0.00 | 78 | 1027.5 | |
| 20260502031516 | 6 | 0.0 | 0.0 | 0.00 | 0.00 | 0.00 | 78 | 1027.6 | |
| 20260502030520 | 6 | 0.0 | 0.0 | 0.00 | 0.00 | 0.00 | 78 | 1027.7 | |
| 20260502025517 | 6 | 0.0 | 0.0 | 0.00 | 0.00 | 0.00 | 77 | 1027.7 | |
| 20260502024522 | 7 | 0.0 | 0.0 | 0.00 | 0.00 | 0.00 | 77 | 1027.8 | |
| 20260502023519 | 7 | 0.0 | 0.0 | 0.00 | 0.00 | 0.00 | 78 | 1027.8 | |
| 20260502022517 | 6 | 0.0 | 0.0 | 0.00 | 0.00 | 0.00 | 77 | 1027.6 | |
| 20260502021522 | 6 | 0.0 | 0.0 | 0.00 | 0.00 | 0.00 | 77 | 1027.7 | |
| 20260502020517 | 6 | 0.0 | 0.0 | 0.00 | 0.00 | 0.00 | 77 | 1027.5 | |
| 20260502015516 | 6 | 0.0 | 0.0 | 0.00 | 0.00 | 0.00 | 77 | 1027.5 | |
| 20260502014524 | 7 | 0.0 | 0.0 | 0.00 | 0.00 | 0.00 | 76 | 1027.6 | |
| 20260502013523 | 7 | 0.0 | 0.0 | 0.00 | 0.00 | 0.00 | 76 | 1027.5 | |
| 20260502012518 | 7 | 0.0 | 0.0 | 0.00 | 0.00 | 0.00 | 76 | 1027.6 | |
| 20260502011517 | 7 | 0.0 | 0.0 | 0.00 | 0.00 | 0.00 | 76 | 1027.7 | |
| 20260502010527 | 7 | 0.0 | 0.0 | 0.00 | 0.00 | 0.00 | 74 | 1027.6 | |
| 20260502005516 | 7 | 0.0 | 0.0 | 0.00 | 0.00 | 0.00 | 73 | 1027.6 | |
| 20260502004523 | 7 | 0.0 | 0.0 | 0.00 | 0.00 | 0.00 | 73 | 1027.7 | |
| 20260502003518 | 7 | 0.0 | 0.0 | 0.00 | 0.00 | 0.00 | 72 | 1027.9 | |
| 20260502002522 | 7 | 0.0 | 0.0 | 0.00 | 0.00 | 0.00 | 73 | 1027.8 | |
| 20260502001529 | 8 | 0.0 | 0.0 | 0.00 | 0.00 | 0.00 | 73 | 1027.9 | |
| 20260502000518 | 8 | 0.0 | 0.0 | 0.00 | 0.00 | 0.00 | 72 | 1027.8 | |
| 20260501235519 | 8 | 0.0 | 0.0 | 0.00 | 0.00 | 0.00 | 72 | 1027.9 | |
| 20260501234527 | 8 | 0.0 | 0.0 | 0.00 | 0.00 | 0.00 | 72 | 1027.9 | |
| 20260501233520 | 8 | 0.0 | 0.0 | 0.00 | 0.00 | 0.00 | 72 | 1027.8 | |
| 20260501232525 | 8 | 0.0 | 0.0 | 0.00 | 0.00 | 0.00 | 72 | 1027.7 |